Weather History for Grand Forks, ND

Change the Weather History Date:

Friday, February 22, 2013

  Actual Average Record
Temperature  
Mean Temperature 9 °F 14 °F  
Max Temperature 17 °F 24 °F 67 °F (2000)
Min Temperature 0 °F 5 °F -19 °F (1965)
Degree Days  
Heating Degree Days 56 50  
Month to date heating degree days 1209 1189  
Since 1 July heating degree days 6701 6855  
Cooling Degree Days 0 0  
Month to date cooling degree days 0 0  
Year to date cooling degree days 0 0  
Moisture  
Dew Point 8 °F    
Average Humidity 84    
Maximum Humidity 92    
Minimum Humidity 76    
Precipitation  
Precipitation 0.00 in 0.02 in 0.50 in (1979)
Month to date precipitation 0.37 0.37  
Year to date precipitation 0.79 0.92  
Snow  
Snow 0.00 in 0.30 in - ()
Month to date snowfall 10.7 5.0  
Since 1 July snowfall 29.8 35.6  
Snow Depth 6.00 in    
Sea Level Pressure  
Sea Level Pressure 30.04 in    
Wind  
Wind Speed 6 mph (NW)    
Max Wind Speed 12 mph    
Max Gust Speed 14 mph    
Visibility 8 miles    
Events Fog    
T = Trace of Precipitation, MM = Missing Value Source: NWS Daily Summary

Daily Weather History Graph

Daily Weather History Graph

Search for Another Location

Airport:

Trip Planner

Search our weather history database for the weather conditions in past years. The results will help you decide how hot, cold, wet, or windy it might be!

Date:

Astronomy

Feb. 22, 2013 Rise Set
Actual Time 7:22 AM CST 6:02 PM CST
Civil Twilight 6:50 AM CST 6:34 PM CST
Nautical Twilight 6:14 AM CST 7:10 PM CST
Astronomical Twilight 5:38 AM CST 7:46 PM CST
Moon 3:07 PM CST (2/22) 5:17 AM CST (2/22)
Length of Visible Light 11h 43m
Length of Day
10h 40m
Waxing Gibbous, 90% of the Moon is Illuminated
Feb 22
Waxing Gibbous
Feb 25
Full
Mar 4
Last Quarter
Mar 11
New
Mar 19
First Quarter

Hourly Weather History & Observations

Time (CST) Temp. Windchill Dew Point Humidity Pressure Visibility Wind Dir Wind Speed Gust Speed Precip Events Conditions
12:53 AM 8.1 °F -0.5 °F 3.0 °F 80% 30.22 in 10.0 mi North 4.6 mph - N/A   Clear
1:53 AM 7.0 °F -3.3 °F 1.9 °F 80% 30.20 in 10.0 mi NW 5.8 mph - N/A   Clear
2:53 AM 3.9 °F -5.3 °F -0.9 °F 80% 30.18 in 10.0 mi NNW 4.6 mph - N/A   Clear
3:53 AM 1.9 °F -9.2 °F -2.9 °F 80% 30.17 in 10.0 mi North 5.8 mph - N/A   Clear
4:53 AM 1.9 °F -5.6 °F -2.0 °F 83% 30.15 in 10.0 mi NNW 3.5 mph - N/A   Clear
5:53 AM 3.0 °F -8.0 °F -2.0 °F 80% 30.14 in 10.0 mi NW 5.8 mph - N/A   Mostly Cloudy
6:53 AM 3.0 °F -10.5 °F -2.0 °F 80% 30.13 in 10.0 mi NNW 8.1 mph - N/A   Mostly Cloudy
7:53 AM 3.0 °F -11.5 °F -2.0 °F 80% 30.13 in 10.0 mi NNW 9.2 mph - N/A   Mostly Cloudy
8:53 AM 3.9 °F -8.2 °F -2.0 °F 76% 30.12 in 10.0 mi NNW 6.9 mph - N/A   Overcast
9:53 AM 6.1 °F -5.6 °F -0.9 °F 73% 30.10 in 10.0 mi NNW 6.9 mph - N/A   Overcast
10:53 AM 9.0 °F -0.9 °F 3.0 °F 77% 30.09 in 10.0 mi North 5.8 mph - N/A   Overcast
11:53 AM 12.0 °F 1.5 °F 6.1 °F 77% 30.07 in 10.0 mi NNW 6.9 mph - N/A   Overcast
12:53 PM 14.0 °F 2.9 °F 9.0 °F 80% 30.05 in 10.0 mi NNW 8.1 mph - N/A   Overcast
1:53 PM 16.0 °F 4.4 °F 10.9 °F 81% 30.02 in 10.0 mi NNW 9.2 mph - N/A   Overcast
2:53 PM 17.1 °F 7.6 °F 12.9 °F 84% 30.01 in 10.0 mi North 6.9 mph - N/A   Overcast
3:53 PM 17.1 °F 7.6 °F 14.0 °F 88% 30.01 in 9.0 mi NNW 6.9 mph - N/A   Overcast
4:53 PM 17.1 °F 8.7 °F 12.9 °F 84% 30.01 in 10.0 mi North 5.8 mph - N/A   Overcast
5:53 PM 17.1 °F 11.7 °F 14.0 °F 88% 30.00 in 10.0 mi North 3.5 mph - N/A   Overcast
6:53 PM 17.1 °F 11.7 °F 15.1 °F 92% 29.99 in 10.0 mi NE 3.5 mph - N/A   Overcast
7:03 PM 17.6 °F - 15.8 °F 93% 29.93 in 10.0 mi Calm Calm - N/A   Overcast
7:53 PM 17.1 °F - 15.1 °F 92% 29.99 in 10.0 mi Calm Calm - N/A   Overcast
8:53 PM 17.1 °F 10.0 °F 15.1 °F 92% 29.98 in 10.0 mi West 4.6 mph - N/A   Overcast
9:53 PM 17.1 °F 8.7 °F 15.1 °F 92% 29.97 in 8.0 mi West 5.8 mph - N/A   Overcast
10:22 PM 17.6 °F 9.3 °F 15.8 °F 93% 29.91 in 1.0 mi West 5.8 mph - N/A   Overcast
10:50 PM 17.6 °F - 15.8 °F 93% 29.90 in 0.5 mi Calm Calm - N/A Fog Light Freezing Fog
10:53 PM 17.1 °F - 16.0 °F 96% 29.96 in 0.2 mi Calm Calm - N/A Fog Light Freezing Fog
11:36 PM 15.8 °F 7.2 °F 15.8 °F 100% 29.90 in 0.8 mi West 5.8 mph - N/A   Mist
11:45 PM 15.8 °F 6.1 °F 14.0 °F 93% 29.90 in 1.8 mi WSW 6.9 mph - N/A   Overcast
11:48 PM 15.8 °F 6.1 °F 14.0 °F 93% 29.89 in 3.0 mi WSW 6.9 mph - N/A   Overcast
11:53 PM 16.0 °F 7.4 °F 14.0 °F 92% 29.95 in 5.0 mi WSW 5.8 mph - N/A   Overcast